STARLINK-2454 (48116 NORAD) Tracking and Keplerian Element Data

This shows tracking and keplerian element data for the satellite.

Feedback or suggestion? Click here.




ElementValue
Catalog48116
NameSTARLINK-2454
Epoch Orbit195
Epoch Day173.91668981
Epoch Year2021
RAAN336.4586
Inclination53.0504
Eccentricity0.0001387
Argument of Perigee98.6896
Mean Anonmoly283.1687
Mean Motion15.06433191
Decay Rate-0.00060811
L11 48116U 21027AA 21173.91668981 -.00060811 00000-0 -40949-2 0 9990
L22 48116 53.0504 336.4586 0001387 98.6896 283.1687 15.06433191 1952

Live tracking and technical data element details for STARLINK-2454 (NORAD 48116). STARLINK-2454 can be tracked NOW for your location showing map with azimuth and elevation plus other details from your city location.

Track the satellite on the map from your city or location and see movement details for azimuth, elevation, latitude, longitude, range, height, and movement on the map or in text.







IsCatalogInMostPopularTable: catalog: 48116, numindb: 36
Update: records affected: 1



GetName: 48116 STARLINK-2454

Hit Count: updated at: Thu, 24 Jun 2021 02:37:30 GMT